Flag for Germany Weather past 2 weeks in Leer, Lower Saxony, Germany

Now
35 °F

Passing clouds.


Feels Like: 28 °F
Forecast: 28 / 34 °F
Wind: 8 mph from Southwest

Location: Emden-Koenigspolder

Current Time: Jan 29, 2015 at 7:52:55 AM

Latest Report: Jan 29, 2015 at 7:00 AM


Visibility: 28 mi

Pressure: 29.06 "Hg

Humidity: 90%

Dew point: 32 °F

Location of LeerLocation

Historic Weather in Leer — Graph

°F

Leer temperature yesterday

Maximum temperature yesterday: 42 °F (at 5:00 PM)
Minimum temperature yesterday: 38 °F (at 9:00 PM)
Average temperature yesterday: 40 °F

Past Weeks' High & Low Weather Summary

 TemperatureHumidityPressure
High48 °F (Jan 15, 12:00 PM)100% (Jan 20, 11:00 AM)30.32 "Hg (Jan 20, 11:00 AM)
Low21 °F (Jan 23, 5:00 AM)71% (Jan 17, 3:00 PM)29.06 "Hg (Jan 29, 7:00 AM)
Average36 °F90%29.87 "Hg
* Reported Jan 14 7:00 AM — Jan 29 7:00 AM, Leer, Weather by CustomWeather, © 2014

Note: Actual official high and low records may vary slightly from our data, if they occured in-between our weather recording intervals... More about our weather records

Advertising

Leer weather history for previous 24 hours

 ConditionsComfort  
Time TempWeatherWind HumidityBarometerVisibility
7:00 AM
Jan 29
35 °FPassing clouds.8 mph90%29.06 "Hg28 mi
6:00 AM35 °FLow clouds.8 mph90%29.09 "Hg22 mi
5:00 AM37 °FFreezing rain. Low clouds.8 mph81%29.12 "Hg15 mi
4:00 AM37 °FOvercast.7 mph78%29.12 "Hg25 mi
3:00 AM38 °FLight freezing rain. Low clouds.8 mph76%29.15 "Hg18 mi
2:00 AM37 °FOvercast.7 mph77%29.18 "Hg19 mi
1:00 AM36 °FLow clouds.10 mph86%29.21 "Hg25 mi
12:00 AM39 °FOvercast.9 mph74%29.18 "Hg22 mi
11:00 PM
Jan 28
38 °FOvercast.8 mph79%29.18 "Hg22 mi
10:00 PM38 °FOvercast.9 mph79%29.21 "Hg28 mi
9:00 PM38 °FPassing clouds.9 mph78%29.21 "Hg25 mi
8:00 PM38 °FPassing clouds.7 mph84%29.21 "Hg22 mi
6:00 PM40 °FOvercast.7 mph90%29.18 "Hg34 mi
5:00 PM42 °FRain. Low clouds.13 mph92%29.18 "Hg2 mi
3:00 PM42 °FRain. Low clouds.10 mph94%29.26 "Hg3 mi
2:00 PM42 °FFog.9 mph95%29.35 "Hg2 mi
1:00 PM42 °FLow clouds.9 mph93%29.44 "Hg4 mi
12:00 PM42 °FOvercast.9 mph86%29.50 "Hg7 mi
11:00 AM41 °FFog.9 mph89%29.58 "Hg4 mi
9:00 AM41 °FOvercast.7 mph90%29.72 "Hg3 mi
8:00 AM41 °FLow clouds.7 mph92%29.76 "Hg3 mi
7:00 AM40 °FDrizzle. Low clouds.7 mph95%29.81 "Hg2 mi
Weather by CustomWeather, © 2014

See weather overviewHow to use our weather pages